Regional Weather Roundup
Issued by NWS Charleston, SC

Current Version | Previous Version | Graphics & Text | Print | Product List | Glossary On
Versions: 1 2 3 4 5 6 7 8 9 10 11 12 13 14 15 16 17 18 19 20 21 22 23 24 25 26 27 28 29 30 31 32 33 34 35 36 37 38 39 40 41 42 43 44 45 46 47 48 49 50
000
ASUS42 KCHS 220725
RWRCHS

REGIONAL WEATHER ROUNDUP
NATIONAL WEATHER SERVICE CHARLESTON SC
300 AM EDT MON SEP 22 2014

NOTE: "FAIR" INDICATES FEW OR NO CLOUDS BELOW 12,000 FEET WITH NO
SIGNIFICANT WEATHER AND/OR OBSTRUCTIONS TO VISIBILITY.

NOT ALL STATIONS ARE QUALITY CONTROLLED BY THE NATIONAL
WEATHER SERVICE. USE DATA WITH CAUTION...ESPECIALLY
DEWPOINT OBSERVATIONS.

SCZ027-030-031-034>040-042>050-220800-
...SOUTH CAROLINA...

CITY           SKY/WX    TMP DP  RH WIND       PRES   REMARKS
N CHARLESTON   CLEAR     73  67  81 SW7       29.95S
WATERFRONT PRK NOT AVBL
FORT JOHNSON   NOT AVBL
MOUNT PLEASANT FAIR      75  68  78 W6        29.95S
JOHNS ISLAND   SUNNY     75  72  88 SW7       29.95F
PINOPOLIS        N/A     75  66  73 SW9       29.87F
MONCKS CORNER    N/A     72  66  83 SW5       29.94S
SUMMERVILLE    FAIR      68  66  94 S3        29.95
BEAUFORT MCAS  CLEAR     70  64  81 E6        29.96S
BEAUFORT ARPT  FAIR      72  66  83 SW6       29.96F
HILTON HEAD IS CLEAR     73  64  73 SW8       29.98F
GEORGETOWN     NOT AVBL
WALTERBORO     SUNNY     70  64  83 SW5       29.96S
ORANGEBURG     PTCLDY    71  63  75 SW6       29.94S
BARNWELL       FAIR      72  63  73 SW3       29.95F
AIKEN          FAIR      72  64  78 SW7       29.98S
MANNING        FAIR      73  66  78 SW6       29.93S
KINGSTREE      NOT AVBL
COLUMBIA       CLOUDY    76  62  62 SW9       29.91S
SUMTER         CLOUDY    74  65  73 SW9       29.90F
FLORENCE       MOCLDY    74  64  71 SW7       29.90F
MYRTLE BEACH   CLEAR     73  63  68 SW12      29.92S
N MYRTLE BEACH CLEAR     74  64  71 SW9       29.91S

$$

GAZ063-065-086>088-099>101-113>116-118-119-134-136>141-150-220800-
...GEORGIA...

CITY           SKY/WX    TMP DP  RH WIND       PRES   REMARKS
SAVANNAH ARPT  CLEAR     70  62  76 S6        29.98S
HUNTER AAF     CLEAR     70  64  81 SW8       29.96F
FORT STEWART   CLEAR     69  61  75 SW5       29.97F
STATESBORO     NOT AVBL
SYLVANIA       SUNNY     74  67  79 CALM      29.97F
CLAXTON        FAIR      64  64 100 CALM      29.98S
THOMSON        CLOUDY    75  69  80 SW3       29.99F
AUGUSTA-BUSH   CLOUDY    73  62  68 SW8       29.93F
AUGUSTA-DANIEL CLOUDY    74  62  66 SW5       29.95F
SWAINSBORO     FAIR      73  64  73 SW3       29.98F
VIDALIA        CLEAR     68  63  83 SW3       29.99S
ALMA           CLEAR     63  60  90 CALM      29.99F
WAYCROSS       NOT AVBL
JESUP          FAIR      66  63  88 CALM      29.98F
BRUNSWICK      CLEAR     68  61  77 W3        30.00S
SAINT SIMONS   CLEAR     71  63  75 SW7       29.99F

$$

SCZ027-028-034-036>038-045-046-048>050-GAZ119-141-220800-
...LAKE AND SUPPLEMENTAL COASTAL OBSERVATIONS...

STATION/POSITION TIME  TEMP    WIND        PRES    WAVE   SWELL
                       AIR SEA DIR/SP/G            HT/PER HT/PER/DIR
                 (UTC) (F)     (DEG/KT/KT) (MB)    (FT/S) (FT/S/D)
UPR LAKE MARION  NOT AVBL
WINYAH BAY       0600   77     240/  8     1013.0S
LAKE MURRAY      0600   78     250/  8/ 10 1012.5S
ACE BASIN NERRS  0700   72        CALM     1015.0S
FORT PULASKI     0700   73     220/  5/  7 1015.1F
SAPELO ISLAND    0600   74     230/  9     1016.0S

$$

ANZ835-935-AMZ111-154-330-350-352-354-374-450-454-472-220800-
...C-MAN AND BUOY OBSERVATIONS...

STATION/POSITION TIME  TEMP    WIND        PRES    WAVE   SWELL
                       AIR SEA DIR/SP/G            HT/PER HT/PER/DIR
                 (UTC) (F)     (DEG/KT/KT) (MB)    (FT/S) (FT/S/D)
FOLLY BEACH CMAN 0700   77     230/  8/ 11 1014.7F
BUOY 41004       0700   82 81  230/ 17/ 19 1013.6F   4/ 5   2/ 9
BUOY 41008       0700   82 82  230/ 16/ 19 1014.9F   3/ 4   2/110/ 9
5E ST. MARYS GA  0700      83                N/A     2/10
FRYING PAN BUOY  NOT AVBL
BUOY 41025       0700   81     240/ 23/ 29 1010.9F   7/ 6   3/120/ 9
CAPE LOOKOUT NC  0700   79     240/ 12/ 17 1011.6F
BUOY 41002       0633   80 81  260/ 14/ 16 1015.4F   6/ 7
BUOY 41010       0700   81 84  230/  6/  8 1015.9F   5/ 9   5/ 50/ 9
BUOY 41012       NOT AVBL
ST AUGUSTINE FL  0700   73     230/  7/  8 1016.3F
CAPERS NEARSHORE 0600   80     260/ 16/ 17   N/A
FRIPP NEARSHORE  NOT AVBL


$$


USA.gov is the U.S. government's official web portal to all federal, state and local government web resources and services.